Location: Krakow
(50.0830°N, 19.9170°E)
Time: 07:01:29
(UTC+02:00)

Tiros 1 despin weight - Pass Details

Date: 15 March 2026
Orbit: 555 x 592 km, 48.2° (Epoch: 18 April)

Event Time Altitude Azimuth Distance (km) Brightness Sun altitude
Rises 09:07:17 0° 278° (W) 2,799 ? 27.4°
Reaches altitude 10° 09:09:37 10° 273° (W) 1,892 ? 27.6°
Maximum altitude 09:13:48 48° 198° (SSW) 750 ? 28.1°
Drops below altitude 10° 09:17:54 10° 124° (SE) 1,863 ? 28.6°
Sets 09:20:12 0° 119° (ESE) 2,752 ? 28.8°
